User: anonymous   Login
Location: Franzen
(48.6167°N, 15.3833°E)
Time: 02:07:21
(UTC+00:00)
Language:

SPOT 5 - Orbit

View from above orbital plane
View from above orbital plane
View from above satellite
View from above satellite

Ground track
Ground track

The orbit data is extracted from the following two-line orbital elements,

1 27421U 02021A   21164.76315900  .00000114  00000-0  36028-4 0  9995
2 27421  98.2299 235.4929 0134921 173.8396 186.4494 14.52102859997185
Epoch (UTC): 13 June 2021 18:18:56
Eccentricity: 0.0134921
inclination: 98.2299°
perigee height: 623 km
apogee height: 814 km
right ascension of ascending node: 235.4929°
argument of perigee: 173.8396°
revolutions per day: 14.52102859
mean anomaly at epoch: 186.4494°
orbit number at epoch: 99718

The dashed part of the orbit path shows where the satellite is in the earth's shadow,  

DLR